Location: Les Coudrans
(46.1056°N, 1.1158°W)
Time: 21:38:20
(UTC+00:00)

MOS 1 Rocket - Pass Details

Date: 03 March 2021
Orbit: 615 x 829 km, 97.4° (Epoch: 21 April)

Event Time Altitude Azimuth Distance (km) Brightness Sun altitude
Rises 18:32:18 0° 8° (N) 3,177 6.6 -7.5°
Reaches altitude 10° 18:34:34 10° 5° (N) 2,282 5.9 -7.9°
Maximum altitude 18:39:31 59° 287° (WNW) 903 4.3 -8.7°
Drops below altitude 10° 18:44:42 10° 209° (SSW) 2,382 6.5 -9.6°
Sets 18:47:06 0° 206° (SSW) 3,328 7.2 -10.0°
